TimeMDT,TemperatureF,Dew PointF,Humidity,Sea Level PressureIn,VisibilityMPH,Wind Direction,Wind SpeedMPH,Gust SpeedMPH,PrecipitationIn,Events,Conditions,WindDirDegrees,DateUTC
12:53 AM,41.0,37.0,86,29.97,10.0,South,4.6,-,N/A,,Clear,190,2013-10-01 06:53:00
1:53 AM,42.1,37.9,85,29.96,10.0,SSW,9.2,-,N/A,,Clear,200,2013-10-01 07:53:00
2:53 AM,39.9,36.0,86,29.97,10.0,Calm,Calm,-,N/A,,Clear,0,2013-10-01 08:53:00
3:53 AM,39.0,36.0,89,29.97,10.0,Calm,Calm,-,N/A,,Clear,0,2013-10-01 09:53:00
4:53 AM,39.9,36.0,86,29.97,10.0,Calm,Calm,-,N/A,,Scattered Clouds,0,2013-10-01 10:53:00
5:53 AM,37.9,35.1,89,29.98,10.0,Calm,Calm,-,N/A,,Partly Cloudy,0,2013-10-01 11:53:00
6:53 AM,37.9,36.0,93,29.99,10.0,North,3.5,-,N/A,,Clear,360,2013-10-01 12:53:00
7:53 AM,36.0,36.0,100,30.00,10.0,Calm,Calm,-,N/A,,Clear,0,2013-10-01 13:53:00
8:53 AM,43.0,39.0,86,30.00,10.0,Calm,Calm,-,N/A,,Clear,0,2013-10-01 14:53:00
9:53 AM,48.0,39.9,74,29.99,10.0,NNE,3.5,-,N/A,,Clear,30,2013-10-01 15:53:00
10:53 AM,53.1,41.0,64,29.98,10.0,Calm,Calm,-,N/A,,Clear,0,2013-10-01 16:53:00
11:53 AM,57.0,41.0,55,29.96,10.0,Calm,Calm,-,N/A,,Clear,0,2013-10-01 17:53:00
12:53 PM,61.0,41.0,48,29.94,10.0,Variable,4.6,-,N/A,,Clear,0,2013-10-01 18:53:00
1:53 PM,63.0,39.0,41,29.91,10.0,Variable,6.9,-,N/A,,Clear,0,2013-10-01 19:53:00
2:53 PM,64.9,39.0,39,29.88,10.0,West,9.2,-,N/A,,Clear,280,2013-10-01 20:53:00
3:53 PM,66.0,39.0,37,29.88,10.0,West,9.2,17.3,N/A,,Clear,280,2013-10-01 21:53:00
4:53 PM,66.0,39.0,37,29.87,10.0,Variable,3.5,-,N/A,,Clear,0,2013-10-01 22:53:00
5:53 PM,64.0,39.0,40,29.88,10.0,WNW,9.2,-,N/A,,Clear,290,2013-10-01 23:53:00
6:53 PM,60.1,39.0,46,29.90,10.0,WNW,9.2,-,N/A,,Partly Cloudy,290,2013-10-02 00:53:00
7:53 PM,57.0,39.9,53,29.93,10.0,West,8.1,-,N/A,,Clear,280,2013-10-02 01:53:00
8:53 PM,53.1,39.9,61,29.96,10.0,West,12.7,18.4,N/A,,Clear,270,2013-10-02 02:53:00
9:53 PM,51.1,39.0,63,29.99,10.0,West,12.7,19.6,N/A,,Clear,260,2013-10-02 03:53:00
10:53 PM,50.0,36.0,59,29.99,10.0,West,19.6,28.8,N/A,,Partly Cloudy,270,2013-10-02 04:53:00
11:53 PM,50.0,33.1,52,30.00,10.0,West,17.3,27.6,N/A,,Scattered Clouds,260,2013-10-02 05:53:00